Regional Weather Roundup
Issued by NWS Little Rock, AR

Home | Current Version | Previous Version | Graphics & Text | Print | Product List | Glossary On
Versions: 1 2 3 4 5 6 7 8 9 10 11 12 13 14 15 16 17 18 19 20 21 22 23 24 25 26 27 28 29 30 31
000
ASUS44 KLZK 271905
RWRLZK

WEATHER ROUNDUP FOR ARKANSAS
NATIONAL WEATHER SERVICE LITTLE ROCK AR
200 PM CDT TUE JUN 27 2017

NOTE: "FAIR" INDICATES FEW OR NO CLOUDS BELOW 12,000 FEET WITH NO
SIGNIFICANT WEATHER AND/OR OBSTRUCTIONS TO VISIBILITY.

ARZ001-003-010-029-272000-
NORTHWEST ARKANSAS

CITY           SKY/WX    TMP DP  RH WIND       PRES   REMARKS
FAYETTEVILLE   SUNNY     81  61  50 E6        30.07F
FORT SMITH     MOSUNNY   86  66  51 VRB3      30.03F HX  88
HARRISON       MOSUNNY   81  59  47 S9        30.10F
BENTONVILLE    CLOUDY    82  61  47 S8        30.08F
ROGERS         PTSUNNY   81  60  48 SE9       30.08F
SILOAM SPGS    MOSUNNY   82  61  47 SE7       30.06F
HIGHFILL       MOSUNNY   84  60  44 SE10G17   30.07
SPRINGDALE     PTSUNNY   81  63  54 E5        30.09F
$$

ARZ004-005-016-272000-
NORTH CENTRAL ARKANSAS

CITY           SKY/WX    TMP DP  RH WIND       PRES   REMARKS
BATESVILLE     PTSUNNY   79  63  57 E5        30.10F
FLIPPIN        MOSUNNY   81  61  50 E6        30.06F
MTN HOME       MOSUNNY   80  64  58 VRB5      30.09F
$$

ARZ040-041-272000-
WEST CENTRAL ARKANSAS

CITY           SKY/WX    TMP DP  RH WIND       PRES   REMARKS
MENA           PTSUNNY   86  64  48 SE3       30.06F HX  87
MOUNT IDA      MOSUNNY   84  61  45 SE6       30.05F
$$

ARZ009-017-025-026-028-272000-
NORTHEAST ARKANSAS

CITY           SKY/WX    TMP DP  RH WIND       PRES   REMARKS
CORNING        LGT RAIN  77  63  61 E5        30.11F
JONESBORO      MOSUNNY   79  66  64 VRB3      30.10F
WALNUT RIDGE   SUNNY     77  63  61 E9        30.11F
BLYTHEVILLE    MOSUNNY   80  66  62 VRB7      30.10F
$$

ARZ022-023-033-042-044-272000-
CENTRAL ARKANSAS

CITY           SKY/WX    TMP DP  RH WIND       PRES   REMARKS
LITTLE ROCK    MOSUNNY   82  64  54 NE7       30.07F
N LITTLE ROCK    N/A     83  65  54 SE6       30.07F
CONWAY           N/A     84  64  51 E7        30.05F HX  86
SEARCY         CLOUDY    81  67  62 VRB3      30.09F
HOT SPRINGS    MOSUNNY   85  62  46 MISG      30.06F HX  85
RUSSELLVILLE   SUNNY     83  64  52 E6        30.06F
CLINTON        FAIR      81  66  61 VRB5      30.08F
$$

ARZ036-272000-
EAST ARKANSAS

CITY           SKY/WX    TMP DP  RH WIND       PRES   REMARKS
WEST MEMPHIS   MOSUNNY   84  67  56 N6        30.07F HX  86
$$

ARZ050-053-066-070-073-272000-
SOUTHWEST ARKANSAS

CITY           SKY/WX    TMP DP  RH WIND       PRES   REMARKS
ARKADELPHIA    FAIR      86  67  52 VRB5      30.05F HX  89
CAMDEN         MOSUNNY   88  59  37 E3        30.04F HX  87
TEXARKANA      CLOUDY    85  65  51 E5        30.04F HX  86
EL DORADO      MOSUNNY   86  63  45 E10       30.04F HX  87
DE QUEEN       MOSUNNY   86  66  51 CALM      30.01F HX  88
$$

ARZ056-057-069-272000-
SOUTHEAST ARKANSAS

CITY           SKY/WX    TMP DP  RH WIND       PRES   REMARKS
PINE BLUFF     SUNNY     83  67  58 E8        30.07F HX  85
STUTTGART      MOSUNNY   82  57  42 S8        30.08F
MONTICELLO     MOSUNNY   85  64  49 E10       30.06F HX  86

$$






USA.gov is the U.S. government's official web portal to all federal, state and local government web resources and services.